#timestamp,LO_Frequency,Hit,StdDev 
1633683615.5,286047004.3,N
1633683635.3,286046999.8,N
1633683655.2,286046997.9,N
1633683675.0,286046997.1,N
1633683675.9,286046997.1,N
1633683695.7,286046996.6,N
1633683715.6,286046997.6,N
1633683735.4,286046996.1,N
1633683755.3,286046992.3,N
1633683775.1,286046992.5,N
1633683776.0,286046992.5,N
1633683795.8,286046991.7,N
1633683815.7,286046992.6,N
1633683835.5,286046991.9,N
1633683855.4,286046991.7,N
1633683875.2,286046994.8,N
1633683895.0,286046990.9,N
1633683895.9,286046990.9,N
1633683915.8,286046990.2,N
1633683935.6,286046991.6,N
1633683955.4,286046991.4,N
1633683975.3,286046989.9,N
1633683995.1,286046989.2,N
1633684015.9,286046987.3,N
1633684035.7,286046991.4,N
1633684055.5,286046991.8,N
1633684075.4,286046990.4,N
1633684095.2,286046991.4,N
1633684115.0,286046989.2,N
1633684115.9,286046989.2,N
1633684135.8,286046989.7,N
1633684155.6,286046990.0,Y
1633684175.5,286046996.0,P
1633684195.3,286046996.4,N
1633684215.1,286046994.7,P
1633684235.9,286046990.1,Y
1633684255.7,286046996.5,P
1633684275.6,286046998.3,N
1633684295.4,286046997.5,N
1633684315.2,286046997.2,N
1633684335.1,286046996.7,N
1633684336.0,286046996.7,Y
1633684355.8,286047000.6,P
1633684375.6,286047000.4,N
1633684395.5,286047001.5,N
1633684415.3,286047004.4,N
1633684435.2,286047001.3,N
1633684455.9,286047000.5,N
1633684475.7,286046998.6,N
1633684495.6,286047001.5,N
1633684515.4,286047007.5,Y
1633684535.2,286047005.4,P
1633684555.1,286047006.0,N
1633684556.0,286047006.0,N
1633684575.8,286047002.9,N
1633684595.7,286047004.7,N
1633684615.5,286047003.2,N
1633684635.3,286047007.5,Y
1633684655.2,286047001.4,P
1633684675.0,286046998.3,N
1633684675.9,286046998.3,N
1633684695.8,286046999.1,N
1633684715.6,286046997.4,N
1633684735.4,286046996.1,N
1633684755.3,286046996.1,N
1633684775.1,286046993.4,N
1633684795.8,286046994.3,N
1633684815.7,286046995.2,N
1633684835.5,286046996.8,N
1633684855.4,286046995.2,N
1633684875.2,286046995.3,N
1633684895.0,286046992.1,N
1633684895.9,286046992.1,N
1633684915.8,286046999.1,N
1633684935.6,286046997.1,N
1633684955.4,286046997.3,N
1633684975.3,286046995.2,N
1633684995.1,286046995.5,N
1633685015.9,286046996.1,N
1633685035.7,286046997.2,N
1633685055.5,286046998.8,N
1633685075.4,286046997.4,N
1633685095.2,286046996.0,N
1633685115.0,286046994.8,N
1633685115.9,286046994.8,N
1633685135.8,286046993.0,N
1633685155.6,286046992.7,N
1633685175.5,286046993.0,N
1633685195.3,286046994.5,N
1633685215.1,286046995.8,N
1633685235.9,286046998.6,N
1633685255.7,286046999.0,N
1633685275.5,286046997.4,N
1633685295.4,286047000.6,N
1633685315.2,286046998.4,N
1633685335.1,286047000.2,N
1633685336.0,286047000.2,N
1633685355.8,286047007.2,Y
1633685375.6,286047009.5,P
1633685395.5,286047008.7,N
1633685415.3,286047008.8,N
1633685435.2,286047012.3,N
1633685455.9,286047007.8,N
1633685475.7,286047008.4,N
1633685495.6,286047011.8,N
1633685515.4,286047015.5,Y
1633685535.2,286047003.8,P
1633685555.1,286047000.4,N
1633685556.0,286047000.4,N
1633685575.8,286046998.6,N
1633685595.7,286046995.1,N
1633685615.5,286046994.1,N
1633685635.3,286046990.1,N
1633685655.2,286046988.5,N
1633685675.0,286046992.9,N
1633685675.9,286046992.9,N
1633685695.7,286046994.8,N
1633685715.6,286046990.6,N
1633685735.4,286046990.0,N
1633685755.3,286046988.2,N
1633685775.1,286046988.0,N
1633685776.0,286046988.0,N
1633685795.8,286046986.8,N
1633685815.7,286046989.5,N
1633685835.5,286046989.2,N
1633685855.4,286046990.7,N
1633685875.2,286046993.2,N
1633685895.0,286046993.2,N
1633685895.9,286046993.2,N
1633685915.8,286046993.5,N
1633685935.6,286046997.5,N
1633685955.4,286046993.5,N
1633685975.3,286046991.0,N
1633685995.1,286046989.7,N
1633686015.9,286046985.5,N
1633686035.7,286046985.4,N
1633686055.5,286046986.7,Y
1633686075.4,286046992.9,P
1633686095.2,286046992.6,P
1633686115.1,286046990.4,P
1633686116.0,286046990.4,Y
1633686135.8,286047002.3,P
1633686155.6,286047004.0,N
1633686175.5,286047003.7,N
1633686195.3,286047001.9,N
1633686215.1,286047000.4,N
1633686235.9,286046999.9,N
1633686255.7,286047005.8,N
1633686275.6,286047012.1,Y
1633686295.4,286047008.7,P
1633686315.2,286047005.6,N
1633686335.1,286047001.5,N
1633686336.0,286047001.5,N
1633686355.8,286047002.7,N
1633686375.7,286046998.2,N
1633686395.5,286047001.6,N
1633686415.3,286047007.6,N
1633686435.2,286047004.7,N
1633686455.0,286047004.0,N
1633686455.9,286047004.0,N
1633686475.7,286046999.7,N
1633686495.6,286046996.9,N
1633686515.4,286046998.1,N
1633686535.3,286047005.6,N
1633686555.1,286047004.5,N
1633686556.0,286047004.5,N
1633686575.8,286047004.2,N
1633686595.7,286047005.6,N
1633686615.5,286047004.5,N
1633686635.4,286047012.3,Y
1633686655.2,286047011.9,P
1633686675.0,286047010.1,N
1633686675.9,286047010.1,N
1633686695.8,286047006.8,N
1633686715.6,286047005.4,N
1633686735.4,286047001.5,N
1633686755.3,286047004.3,N
1633686775.1,286047001.1,N
1633686795.9,286047002.2,N
1633686815.7,286047002.6,N
1633686835.5,286047004.3,N
1633686855.4,286047002.2,N
1633686875.2,286047002.1,N
1633686895.0,286047001.5,N
1633686895.9,286047001.5,N
1633686915.8,286047001.7,N
1633686935.6,286047004.9,N
1633686955.5,286047001.6,N
1633686975.3,286047005.4,N
1633686995.1,286047003.2,N
1633687015.9,286047005.6,N
1633687035.7,286047001.6,N
1633687055.5,286046997.1,N
1633687075.4,286046996.8,N
1633687095.2,286046996.1,N
1633687115.1,286046999.0,N
1633687116.0,286046999.0,N
1633687135.8,286047001.3,N
1633687155.6,286047002.0,N
1633687175.5,286047006.6,N
1633687195.3,286047007.0,N
